Probability
0 0 0 0 0 0 0 0 0 0 0 0 0 0 0 0 0 0 0 0 0 0 0 0 0 0 0 0 0 1 1 1 3 4 4 3 2 1 0 0 0 0 0 0
0 0 0 0 0 0 0 0 0 0 0 0 0 0 0 0 0 0 0 0 0 0 0 0 0 0 0 0 0 0 0 1 2 4 3 2 1 0 0 0 0 0 0 0
0 0 0 0 0 0 0 0 0 0 0 0 0 0 0 0 0 0 0 0 0 0 0 0 0 0 0 0 0 0 0 0 1 3 3 1 1 0 0 0 0 0 0 0
0 0 0 0 0 0 0 0 0 0 0 0 0 0 0 0 0 0 0 0 0 0 0 0 0 0 0 0 0 0 0 0 0 1 1 1 1 0 0 0 0 0 0 0
0 0 0 0 0 0 0 0 0 0 0 0 0 0 0 0 0 0 0 0 0 0 0 0 0 0 0 0 0 0 0 0 0 0 0 0 0 0 0 0 0 0 0 0
0 0 0 0 0 0 0 0 0 0 0 0 0 0 0 0 0 0 0 0 0 0 0 0 0 0 0 0 0 0 0 0 0 0 0 0 0 0 0 0 0 0 0 0
0 0 0 0 0 0 0 0 0 0 0 0 0 0 0 0 0 0 0 0 0 0 0 0 0 0 0 0 0 0 0 0 0 0 0 0 0 0 0 0 0 0 0 0
0 0 0 0 0 0 0 0 0 0 0 0 0 0 0 0 0 0 0 0 0 0 0 0 0 0 0 0 0 0 0 0 0 0 0 0 0 0 0 0 0 0 0 0
0 0 0 0 0 0 0 0 0 0 0 0 0 0 0 0 0 0 0 0 0 0 0 0 0 0 0 0 0 0 0 0 0 0 0 0 0 0 0 0 0 0 0 0
0 0 0 0 0 0 0 0 0 0 0 0 0 0 0 0 0 0 0 0 0 0 0 0 0 0 0 0 0 0 0 0 0 0 0 0 0 0 0 0 0 0 0 0
0 0 0 0 0 0 0 0 0 0 0 0 0 0 0 0 0 0 0 0 0 0 0 0 0 0 0 0 0 0 0 0 0 0 0 0 0 0 0 0 0 0 0 0
0 0 0 0 0 0 0 0 0 0 0 0 0 0 0 0 0 0 0 0 0 0 0 0 0 0 0 0 0 0 0 0 0 0 0 0 0 0 0 0 0 0 0 0
0 0 0 0 0 0 0 0 0 0 0 0 0 0 0 0 0 0 0 0 0 0 0 0 0 0 0 0 0 0 0 0 0 0 0 0 0 0 0 0 0 0 0 0
0 0 0 0 0 0 0 0 0 0 0 0 0 0 0 0 0 0 0 0 0 0 0 0 0 0 0 0 0 0 0 0 0 0 0 0 0 0 0 0 0 0 0 0
0 0 0 0 0 0 0 0 0 0 0 0 0 0 0 0 0 0 0 0 0 0 0 0 0 0 0 0 0 0 0 0 0 0 0 0 0 0 0 0 0 0 0 0
0 0 0 0 0 0 0 0 0 0 0 0 0 0 0 0 0 0 0 0 0 0 0 0 0 0 0 0 0 0 0 0 0 0 0 0 0 0 0 0 0 0 0 0
0 0 0 0 0 0 0 0 0 0 0 0 0 0 0 0 0 0 0 0 0 0 0 0 0 0 0 0 0 0 0 0 0 0 0 0 0 0 0 0 0 0 0 0
0 0 0 0 0 0 0 0 0 0 0 0 0 0 0 0 0 0 0 0 0 0 0 0 0 0 0 0 0 0 0 0 0 0 0 0 0 0 0 0 0 0 0 0
0 0 0 0 0 0 0 0 0 0 0 0 0 0 0 0 0 0 0 0 0 0 0 0 0 0 0 0 0 0 0 0 0 0 0 0 0 0 0 0 0 0 0 0
0 0 0 0 0 0 0 0 0 0 0 0 0 0 0 0 0 0 0 0 0 0 0 0 0 0 0 0 0 0 0 0 0 0 0 0 0 0 0 0 0 0 0 0
0 0 0 0 0 0 0 0 0 0 0 0 0 0 0 0 0 0 0 0 0 0 0 0 0 0 0 0 0 0 0 0 0 0 0 0 0 0 0 0 0 0 0 0
0 0 0 0 0 0 0 0 0 0 0 0 0 0 0 0 0 0 0 0 0 0 0 0 0 0 0 0 0 0 0 0 0 0 0 0 0 0 0 0 0 0 0 0
0 0 0 0 0 0 0 0 0 0 0 0 0 0 0 0 0 0 0 0 0 0 0 0 0 0 0 0 0 0 0 0 0 0 0 0 0 0 0 0 0 0 0 0
0 0 0 0 0 0 0 0 0 0 0 0 0 0 0 0 0 0 0 0 0 0 0 0 0 0 0 0 0 0 0 0 0 0 0 0 0 0 0 0 0 0 0 0
0 0 0 0 0 0 0 0 0 0 0 0 0 0 0 0 0 0 0 0 0 0 0 0 0 0 0 0 0 0 0 0 0 0 0 0 0 0 0 0 0 0 0 0
0 0 0 0 0 0 0 0 0 0 0 0 0 0 0 0 0 0 0 0 0 0 0 0 0 0 0 0 0 0 0 0 0 0 0 0 0 0 0 0 0 0 0 0
Wind_Speed
1 3 3 7 8 5 4 4 7 7 4 3 7 10 10 7 5 6 6 5 5 5 3 1 1 0 1 2 2 2 2 2 3 3 3 3 3 2 2 2 3 3 2 2
2 4 7 4 4 4 4 5 6 7 3 3 6 10 9 7 7 8 8 7 6 4 2 1 0 1 1 2 1 2 2 1 2 2 2 3 3 2 2 2 2 2 2 2
6 5 3 3 3 4 6 7 7 6 5 3 4 8 6 6 4 4 5 5 5 6 5 3 2 1 1 1 1 1 1 1 1 2 3 3 3 2 2 2 2 1 2 2
4 4 2 2 4 4 7 5 5 4 2 4 1 7 7 5 4 4 5 4 5 4 4 3 3 2 2 1 1 1 1 1 1 2 3 5 4 3 3 2 2 2 2 2
4 3 2 4 5 4 6 3 2 3 3 4 3 5 9 2 5 6 6 5 4 4 4 4 4 3 2 1 1 1 1 1 1 2 3 3 3 2 2 2 3 2 2 2
4 3 2 4 3 3 1 2 3 2 1 5 6 6 9 4 6 5 4 4 3 3 3 3 2 2 2 1 1 1 2 1 1 2 2 3 3 3 4 3 3 2 2 1
4 4 2 1 0 1 1 3 3 4 2 8 4 6 9 6 4 5 5 4 3 3 3 3 3 2 2 1 1 1 2 1 1 1 2 2 3 3 4 3 3 3 2 1
3 6 4 3 4 4 4 6 6 6 6 6 3 8 7 4 3 2 3 3 3 3 3 3 3 3 3 2 2 2 2 1 1 1 1 2 2 2 2 2 2 3 2 2
5 6 3 3 2 4 3 5 5 3 2 4 7 6 7 2 3 2 1 2 2 3 2 2 2 3 2 2 2 3 2 2 2 2 1 1 2 2 2 1 1 1 1 1
5 4 4 3 1 2 3 4 3 4 4 6 7 6 5 4 5 3 2 2 2 2 2 2 2 3 2 2 2 2 2 3 2 2 2 2 1 2 2 2 1 1 0 0
2 3 3 1 6 7 4 4 4 3 4 5 5 8 5 6 5 5 4 3 2 2 3 3 2 2 2 2 1 1 2 1 1 2 2 2 1 2 2 2 2 1 1 1
3 3 4 7 5 4 5 7 8 6 6 5 5 9 2 3 3 3 3 3 2 2 2 2 1 1 1 1 1 1 2 2 2 2 1 2 2 2 2 2 1 1 1 1
5 4 1 5 3 2 3 5 6 4 3 5 7 10 1 0 1 1 2 2 2 1 1 1 0 1 1 1 1 1 1 1 1 2 2 2 2 2 2 1 1 1 1 1
3 5 8 10 7 4 5 5 6 6 6 8 12 12 8 6 5 4 3 3 3 2 2 1 1 2 2 2 2 2 2 1 1 2 2 2 2 2 2 1 1 1 1 1
3 5 7 9 8 7 9 9 9 12 12 12 13 13 13 9 7 5 3 2 2 2 2 2 2 2 2 2 2 2 2 2 2 2 2 2 1 1 1 1 1 1 1 1
4 5 4 8 8 9 11 12 13 14 13 14 14 17 11 6 3 4 4 3 3 3 3 2 2 2 2 3 3 2 2 2 2 2 2 2 1 1 1 1 1 1 1 1
5 5 4 8 6 5 12 13 15 12 10 11 16 16 7 5 5 5 4 3 3 4 3 3 3 3 3 3 3 3 3 2 2 2 2 2 1 1 1 1 1 1 2 1
7 6 4 4 2 12 10 3 8 10 11 11 10 8 6 6 4 2 3 4 3 3 3 3 3 3 3 2 2 2 2 1 2 2 2 1 1 2 1 1 1 2 2 2
8 8 5 4 7 11 8 4 4 7 9 8 9 8 5 2 1 3 3 2 3 3 3 3 3 3 2 2 2 2 2 1 2 2 2 2 2 2 2 2 2 2 2 2
5 6 6 6 6 10 8 3 2 2 7 5 6 7 5 3 4 6 3 1 1 1 2 2 2 1 1 2 1 1 2 2 3 3 3 2 2 3 3 3 2 2 2 3
5 6 9 9 9 10 6 3 3 5 8 2 5 5 5 5 6 3 1 1 1 1 1 1 1 1 1 1 1 1 2 3 4 2 2 2 2 2 2 2 2 2 2 2
9 7 7 6 8 11 3 5 7 7 1 1 2 3 4 4 3 2 2 2 1 1 1 1 1 2 2 1 1 2 4 4 2 2 2 2 2 2 1 1 2 2 2 2
8 9 7 9 9 4 5 6 4 2 3 2 2 2 3 3 3 3 3 2 2 2 1 1 1 2 2 1 1 3 4 2 1 2 2 2 2 1 2 2 2 2 2 2
5 3 4 5 7 5 5 4 3 3 3 2 2 2 2 3 3 3 3 3 2 2 1 1 1 2 3 3 2 3 3 2 1 2 2 2 2 2 1 2 2 2 2 3
7 5 4 7 6 4 6 6 5 3 2 1 1 1 2 2 3 3 3 3 2 2 1 1 2 4 4 4 3 3 2 1 2 3 3 2 2 2 2 2 3 4 4 5
5 7 8 9 7 6 5 3 3 3 2 2 1 1 1 2 2 3 3 3 2 2 2 2 3 4 5 4 4 3 3 2 3 3 3 2 2 2 2 2 3 5 6 7
Wind_Direction
82 94 209 218 209 214 214 236 265 267 272 264 255 265 268 262 243 238 240 235 233 222 226 223 202 154 100 86 98 115 131 145 144 153 153 155 157 150 135 120 106 108 108 110
63 243 236 231 229 236 247 265 273 287 292 269 275 277 270 251 232 226 226 226 221 215 226 236 167 102 107 117 122 122 117 129 157 161 164 158 150 147 139 124 115 114 118 121
198 238 240 207 235 241 251 240 250 267 312 306 306 293 278 274 243 248 234 218 213 201 203 214 194 162 127 115 135 137 148 147 134 138 138 127 120 123 132 137 136 117 124 124
244 261 249 215 234 221 252 245 242 251 275 277 242 283 276 267 278 260 252 231 220 208 197 191 186 177 170 185 146 120 129 116 119 139 147 156 165 170 175 170 157 132 128 129
251 255 223 230 241 215 234 268 253 249 232 273 241 243 279 287 268 257 246 234 229 209 196 195 191 182 173 167 143 130 117 98 106 126 147 162 165 165 154 147 143 145 143 142
260 274 238 234 259 221 224 10 3 18 69 265 227 212 270 235 231 240 234 229 224 205 195 191 181 159 148 142 121 119 122 107 104 124 141 149 158 160 154 159 166 168 166 164
300 283 262 218 275 300 99 93 11 340 308 253 227 223 250 246 239 223 222 220 207 189 176 176 171 173 169 163 148 139 130 135 136 139 152 148 151 155 166 173 176 174 178 184
220 268 236 205 191 197 207 169 178 212 238 270 256 236 252 256 279 245 206 198 179 174 179 186 189 184 183 180 174 168 165 171 164 159 174 146 144 157 164 171 175 181 193 199
199 252 289 258 241 168 183 213 195 173 268 275 258 270 290 263 286 283 199 164 186 188 188 192 196 186 187 180 191 193 190 182 172 172 161 150 152 157 157 148 146 176 191 192
181 245 270 281 313 278 198 171 132 166 205 249 268 253 242 239 242 250 237 216 211 195 188 199 209 204 189 185 186 189 193 196 183 176 177 168 173 171 158 144 154 161 155 84
182 204 279 268 205 208 182 187 185 187 195 201 259 262 226 222 219 214 227 226 215 213 209 211 224 201 173 165 170 191 197 196 183 185 177 163 173 165 153 156 174 180 171 151
181 159 246 249 252 236 209 196 179 190 229 218 244 266 262 227 205 191 217 230 229 217 217 217 210 173 157 176 196 205 201 201 205 197 175 177 180 160 152 168 181 173 179 199
160 149 269 316 308 275 231 216 204 202 200 217 229 260 279 309 292 214 217 245 257 249 232 240 197 201 210 213 227 237 228 216 208 187 177 182 189 180 176 181 186 177 184 219
159 181 200 219 233 212 244 241 210 195 219 238 239 254 269 268 263 257 238 238 246 244 215 208 224 247 265 258 242 244 249 233 204 186 185 194 204 207 204 202 202 194 192 213
156 215 234 252 257 248 247 244 224 222 228 236 254 254 261 252 242 240 234 229 239 261 268 239 234 246 260 275 275 262 253 238 202 186 196 209 212 212 209 221 224 218 215 223
178 209 234 266 260 254 258 249 238 238 238 242 257 263 259 261 240 237 231 218 235 254 266 267 257 256 254 255 262 268 260 244 193 189 205 202 190 200 213 230 239 248 252 250
185 181 211 259 273 284 259 235 226 228 222 220 241 252 254 250 238 230 232 224 229 250 264 269 264 255 257 256 252 254 254 248 207 203 207 194 189 210 229 234 238 248 260 263
192 198 213 245 240 242 247 230 219 228 242 233 240 251 237 223 222 234 229 215 236 252 262 272 271 269 273 273 258 254 251 231 212 209 212 208 207 231 241 236 244 259 265 259
201 191 198 204 236 264 278 251 201 215 255 238 235 246 250 230 288 285 250 212 223 242 256 261 264 263 275 281 268 243 234 228 225 226 227 227 220 227 237 245 251 262 271 270
199 192 199 210 226 245 252 242 210 161 268 252 217 225 224 192 240 252 233 202 233 258 266 280 299 313 315 306 299 239 242 235 237 240 240 236 224 221 231 246 262 282 274 272
182 202 211 221 237 255 252 236 136 191 250 231 200 212 206 215 231 238 202 196 213 233 273 294 311 313 302 316 316 256 259 255 257 256 251 245 235 235 238 254 272 274 279 285
185 193 208 204 230 251 216 147 187 221 226 178 202 209 204 218 232 230 220 217 215 252 286 290 283 296 308 308 259 263 265 276 285 262 247 246 250 251 244 242 267 267 259 269
204 199 197 203 223 241 181 195 217 200 208 223 207 212 190 205 231 238 248 239 224 223 255 276 268 288 298 282 246 255 276 296 287 268 253 254 263 258 247 234 244 254 248 252
241 216 199 240 252 245 234 244 243 221 218 217 190 188 182 209 229 241 253 248 243 240 258 283 281 281 286 288 273 264 279 280 254 251 251 245 241 254 255 249 237 239 241 250
217 187 210 248 255 259 253 240 240 233 206 174 172 195 210 211 242 253 262 252 249 260 281 261 253 264 275 283 279 277 266 236 242 249 247 245 240 236 246 251 246 249 238 238
206 195 206 236 230 218 237 230 203 187 205 203 205 267 271 220 243 259 263 260 256 263 275 270 268 272 277 280 279 273 256 230 225 244 243 238 240 240 242 257 288 285 282 278